Location: ??????
(38.1303°N, 24.0039°E)
Time: 13:02:56
(UTC+00:00)

IKONOS-2 - Pass Details

Date: 20 June 2021
Orbit: 601 x 609 km, 98.2° (Epoch: 03 August)

Event Time Altitude Azimuth Distance (km) Brightness Sun altitude
Exits shadow 01:25:34 14° 173° (S) 1,667 6.4 -15.4°
Maximum altitude 01:29:06 74° 257° (WSW) 629 4.4 -14.9°
Drops below altitude 10° 01:33:20 10° 343° (NNW) 1,949 7.5 -14.3°
Sets 01:35:31 0° 346° (NNW) 2,856 8.4 -14.0°
